Wetterdaten: Mittwoch, 19.11.2014
Datum Zeit Temp. A. Feuchte A. Luftdruck Regen Wind Richtung Richtung Sonnenschein ET UV Solar Taupunkt Windchill Windben Empfang
19.11.2014 00:00 4,5 C 81 % 1009,6 hPa 0,0 l/m 0,0 km/h (0 Bft) S-SW 194 0 min 0,000 mm 0,0 UV-I 0 W/m 1,5 C 4,5 C 0,0 km/h (0 Bft) 0,00 %
19.11.2014 00:15 4,5 C 81 % 1009,7 hPa 0,0 l/m 0,0 km/h (0 Bft) S 188 0 min 0,000 mm 0,0 UV-I 0 W/m 1,5 C 4,5 C 0,0 km/h (0 Bft) 0,00 %
19.11.2014 00:30 4,6 C 81 % 1009,9 hPa 0,0 l/m 0,0 km/h (0 Bft) W-SW 253 0 min 0,000 mm 0,0 UV-I 0 W/m 1,6 C 4,6 C 0,0 km/h (0 Bft) 0,00 %
19.11.2014 00:45 4,6 C 81 % 1010,0 hPa 0,0 l/m 0,0 km/h (0 Bft) SW 231 0 min 0,000 mm 0,0 UV-I 0 W/m 1,6 C 4,6 C 0,0 km/h (0 Bft) 0,00 %
19.11.2014 01:00 4,4 C 82 % 1009,9 hPa 0,0 l/m 0,0 km/h (0 Bft) W-SW 240 0 min 0,000 mm 0,0 UV-I 0 W/m 1,6 C 4,4 C 0,0 km/h (0 Bft) 0,00 %
19.11.2014 01:15 4,4 C 81 % 1009,9 hPa 0,0 l/m 0,0 km/h (0 Bft) S-SO 158 0 min 0,000 mm 0,0 UV-I 0 W/m 1,4 C 4,4 C 0,0 km/h (0 Bft) 0,00 %
19.11.2014 01:30 4,7 C 80 % 1010,0 hPa 0,0 l/m 0,0 km/h (0 Bft) S 172 0 min 0,000 mm 0,0 UV-I 0 W/m 1,6 C 4,7 C 0,0 km/h (0 Bft) 0,00 %
19.11.2014 01:45 4,8 C 80 % 1010,1 hPa 0,0 l/m 0,0 km/h (0 Bft) NW 322 0 min 0,000 mm 0,0 UV-I 0 W/m 1,6 C 4,8 C 0,0 km/h (0 Bft) 0,00 %
19.11.2014 02:00 4,8 C 80 % 1010,4 hPa 0,0 l/m 0,0 km/h (0 Bft) SW 222 0 min 0,000 mm 0,0 UV-I 0 W/m 1,6 C 4,8 C 0,0 km/h (0 Bft) 0,00 %
19.11.2014 02:15 4,9 C 80 % 1010,2 hPa 0,0 l/m 0,0 km/h (0 Bft) W-SW 257 0 min 0,000 mm 0,0 UV-I 0 W/m 1,7 C 4,9 C 0,0 km/h (0 Bft) 0,00 %
19.11.2014 02:30 5,1 C 80 % 1010,2 hPa 0,0 l/m 0,7 km/h (0 Bft) NW 312 0 min 0,000 mm 0,0 UV-I 0 W/m 1,9 C 5,1 C 4,0 km/h (1 Bft) 0,00 %
19.11.2014 02:45 5,5 C 77 % 1010,2 hPa 0,0 l/m 4,3 km/h (1 Bft) SW 230 0 min 0,000 mm 0,0 UV-I 0 W/m 1,8 C 5,5 C 7,9 km/h (2 Bft) 0,00 %
19.11.2014 03:00 5,8 C 76 % 1010,2 hPa 0,0 l/m 5,4 km/h (1 Bft) W-NW 303 0 min 0,000 mm 0,0 UV-I 0 W/m 1,9 C 5,8 C 7,9 km/h (2 Bft) 0,00 %
19.11.2014 03:15 5,6 C 77 % 1010,5 hPa 0,0 l/m 0,4 km/h (0 Bft) W-SW 254 0 min 0,000 mm 0,0 UV-I 0 W/m 1,9 C 5,6 C 4,0 km/h (1 Bft) 0,00 %
19.11.2014 03:30 5,5 C 77 % 1010,5 hPa 0,0 l/m 0,4 km/h (0 Bft) W-SW 251 0 min 0,000 mm 0,0 UV-I 0 W/m 1,8 C 5,5 C 4,0 km/h (1 Bft) 0,00 %
19.11.2014 03:45 5,4 C 78 % 1010,9 hPa 0,0 l/m 0,0 km/h (0 Bft) W-SW 253 0 min 0,000 mm 0,0 UV-I 0 W/m 1,9 C 5,4 C 0,0 km/h (0 Bft) 0,00 %
19.11.2014 04:00 5,1 C 79 % 1011,1 hPa 0,0 l/m 0,4 km/h (0 Bft) W-NW 296 0 min 0,000 mm 0,0 UV-I 0 W/m 1,8 C 5,1 C 4,0 km/h (1 Bft) 0,00 %
19.11.2014 04:15 5,5 C 76 % 1010,8 hPa 0,0 l/m 0,7 km/h (0 Bft) N-NO 28 0 min 0,000 mm 0,0 UV-I 0 W/m 1,6 C 5,5 C 4,0 km/h (1 Bft) 0,00 %
19.11.2014 04:30 5,6 C 76 % 1011,1 hPa 0,0 l/m 0,4 km/h (0 Bft) NO 50 0 min 0,000 mm 0,0 UV-I 0 W/m 1,7 C 5,6 C 4,0 km/h (1 Bft) 0,00 %
19.11.2014 04:45 5,7 C 75 % 1011,4 hPa 0,0 l/m 0,7 km/h (0 Bft) SW 223 0 min 0,000 mm 0,0 UV-I 0 W/m 1,6 C 5,7 C 4,0 km/h (1 Bft) 0,00 %
19.11.2014 05:00 6,0 C 74 % 1011,3 hPa 0,0 l/m 0,7 km/h (0 Bft) W-SW 256 0 min 0,000 mm 0,0 UV-I 0 W/m 1,7 C 6,0 C 4,0 km/h (1 Bft) 0,00 %
19.11.2014 05:15 6,0 C 74 % 1011,3 hPa 0,0 l/m 0,4 km/h (0 Bft) W 259 0 min 0,000 mm 0,0 UV-I 0 W/m 1,7 C 6,0 C 4,0 km/h (1 Bft) 0,00 %
19.11.2014 05:30 6,0 C 74 % 1011,7 hPa 0,0 l/m 0,0 km/h (0 Bft) W-SW 258 0 min 0,000 mm 0,0 UV-I 0 W/m 1,7 C 6,0 C 0,0 km/h (0 Bft) 0,00 %
19.11.2014 05:45 6,1 C 74 % 1011,6 hPa 0,0 l/m 0,0 km/h (0 Bft) NO 50 0 min 0,000 mm 0,0 UV-I 0 W/m 1,8 C 6,1 C 0,0 km/h (0 Bft) 0,00 %
19.11.2014 06:00 6,3 C 73 % 1011,9 hPa 0,0 l/m 0,7 km/h (0 Bft) N-NW 330 0 min 0,000 mm 0,0 UV-I 0 W/m 1,8 C 6,3 C 4,0 km/h (1 Bft) 0,00 %
19.11.2014 06:15 6,3 C 73 % 1011,9 hPa 0,0 l/m 0,0 km/h (0 Bft) O-SO 115 0 min 0,000 mm 0,0 UV-I 0 W/m 1,8 C 6,3 C 0,0 km/h (0 Bft) 0,00 %
19.11.2014 06:30 6,3 C 73 % 1012,0 hPa 0,0 l/m 1,8 km/h (1 Bft) S-SW 197 0 min 0,000 mm 0,0 UV-I 0 W/m 1,8 C 6,3 C 4,0 km/h (1 Bft) 0,00 %
19.11.2014 06:45 6,4 C 73 % 1012,1 hPa 0,0 l/m 0,4 km/h (0 Bft) W-SW 252 0 min 0,000 mm 0,0 UV-I 0 W/m 1,9 C 6,4 C 4,0 km/h (1 Bft) 0,00 %
19.11.2014 07:00 6,3 C 73 % 1012,5 hPa 0,0 l/m 4,0 km/h (1 Bft) W-SW 241 0 min 0,000 mm 0,0 UV-I 0 W/m 1,8 C 6,3 C 7,9 km/h (2 Bft) 0,00 %
19.11.2014 07:15 6,3 C 74 % 1012,7 hPa 0,0 l/m 1,4 km/h (1 Bft) N 355 0 min 0,000 mm 0,0 UV-I 0 W/m 2,0 C 6,3 C 4,0 km/h (1 Bft) 0,00 %
19.11.2014 07:30 6,2 C 76 % 1012,9 hPa 0,0 l/m 1,4 km/h (1 Bft) N-NW 342 0 min 0,000 mm 0,0 UV-I 0 W/m 2,3 C 6,2 C 4,0 km/h (1 Bft) 0,00 %
19.11.2014 07:45 6,0 C 78 % 1013,2 hPa 0,0 l/m 0,0 km/h (0 Bft) W-SW 254 0 min 0,000 mm 0,0 UV-I 0 W/m 2,5 C 6,0 C 0,0 km/h (0 Bft) 0,00 %
19.11.2014 08:00 5,9 C 79 % 1013,7 hPa 0,0 l/m 0,7 km/h (0 Bft) W-NW 298 0 min 0,000 mm 0,0 UV-I 0 W/m 2,5 C 5,9 C 4,0 km/h (1 Bft) 0,00 %
19.11.2014 08:15 6,0 C 79 % 1013,7 hPa 0,3 l/m 0,0 km/h (0 Bft) S 188 0 min 0,000 mm 0,0 UV-I 38 W/m 2,6 C 6,0 C 0,0 km/h (0 Bft) 0,00 %
19.11.2014 08:30 6,2 C 78 % 1014,0 hPa 0,0 l/m 3,2 km/h (1 Bft) NW 312 15 min 0,000 mm 0,0 UV-I 91 W/m 2,7 C 6,2 C 7,9 km/h (2 Bft) 0,00 %
19.11.2014 08:45 6,4 C 76 % 1014,1 hPa 0,0 l/m 8,3 km/h (2 Bft) W-SW 256 0 min 0,000 mm 1,0 UV-I 66 W/m 2,5 C 4,8 C 11,9 km/h (2 Bft) 0,00 %
19.11.2014 09:00 6,3 C 78 % 1014,3 hPa 0,0 l/m 2,2 km/h (1 Bft) W-SW 256 0 min 0,000 mm 1,0 UV-I 45 W/m 2,8 C 6,3 C 4,0 km/h (1 Bft) 0,00 %
19.11.2014 09:15 6,2 C 79 % 1014,7 hPa 0,0 l/m 0,0 km/h (0 Bft) S-SW 192 0 min 0,000 mm 1,0 UV-I 45 W/m 2,8 C 6,2 C 0,0 km/h (0 Bft) 0,00 %
19.11.2014 09:30 6,1 C 79 % 1015,0 hPa 0,3 l/m 1,4 km/h (1 Bft) W-SW 255 0 min 0,000 mm 1,0 UV-I 66 W/m 2,7 C 6,1 C 4,0 km/h (1 Bft) 0,00 %
19.11.2014 09:45 6,1 C 80 % 1015,3 hPa 0,0 l/m 0,4 km/h (0 Bft) S 191 0 min 0,000 mm 1,0 UV-I 77 W/m 2,9 C 6,1 C 4,0 km/h (1 Bft) 0,00 %
19.11.2014 10:00 6,1 C 79 % 1015,6 hPa 0,0 l/m 2,2 km/h (1 Bft) SW 227 0 min 0,000 mm 0,0 UV-I 57 W/m 2,7 C 6,1 C 7,9 km/h (2 Bft) 0,00 %
19.11.2014 10:15 6,0 C 78 % 1016,0 hPa 0,0 l/m 4,7 km/h (1 Bft) W-SW 251 0 min 0,000 mm 1,0 UV-I 118 W/m 2,5 C 6,0 C 7,9 km/h (2 Bft) 0,00 %
19.11.2014 10:30 6,0 C 79 % 1016,2 hPa 0,0 l/m 0,4 km/h (0 Bft) S 189 0 min 0,000 mm 1,0 UV-I 178 W/m 2,6 C 6,0 C 4,0 km/h (1 Bft) 0,00 %
19.11.2014 10:45 6,1 C 79 % 1016,2 hPa 0,0 l/m 2,9 km/h (1 Bft) W-SW 256 0 min 0,000 mm 1,0 UV-I 118 W/m 2,7 C 6,1 C 7,9 km/h (2 Bft) 0,00 %
19.11.2014 11:00 6,1 C 79 % 1016,3 hPa 0,0 l/m 4,0 km/h (1 Bft) W-SW 251 0 min 0,000 mm 1,0 UV-I 134 W/m 2,7 C 6,1 C 4,0 km/h (1 Bft) 0,00 %
19.11.2014 11:15 6,1 C 79 % 1016,5 hPa 0,0 l/m 2,2 km/h (1 Bft) S-SW 199 0 min 0,000 mm 1,0 UV-I 170 W/m 2,7 C 6,1 C 4,0 km/h (1 Bft) 0,00 %
19.11.2014 11:30 6,0 C 80 % 1016,9 hPa 0,3 l/m 2,2 km/h (1 Bft) W-SW 256 0 min 0,000 mm 1,0 UV-I 171 W/m 2,8 C 6,0 C 7,9 km/h (2 Bft) 0,00 %
19.11.2014 11:45 5,9 C 80 % 1016,9 hPa 0,3 l/m 3,2 km/h (1 Bft) W-SW 255 0 min 0,000 mm 1,0 UV-I 196 W/m 2,7 C 5,9 C 4,0 km/h (1 Bft) 0,00 %
19.11.2014 12:00 5,8 C 80 % 1016,8 hPa 0,3 l/m 11,9 km/h (2 Bft) SW 235 0 min 0,000 mm 1,0 UV-I 146 W/m 2,6 C 1,7 C 15,8 km/h (3 Bft) 0,00 %
19.11.2014 12:15 5,7 C 79 % 1017,1 hPa 0,3 l/m 0,7 km/h (0 Bft) SW 232 0 min 0,000 mm 1,0 UV-I 108 W/m 2,3 C 5,7 C 4,0 km/h (1 Bft) 0,00 %
19.11.2014 12:30 5,6 C 80 % 1017,5 hPa 0,3 l/m 0,4 km/h (0 Bft) S-SW 202 0 min 0,000 mm 0,0 UV-I 86 W/m 2,4 C 5,6 C 4,0 km/h (1 Bft) 0,00 %
19.11.2014 12:45 5,7 C 81 % 1017,5 hPa 0,6 l/m 0,7 km/h (0 Bft) N-NW 341 0 min 0,000 mm 0,0 UV-I 62 W/m 2,7 C 5,7 C 4,0 km/h (1 Bft) 0,00 %
19.11.2014 13:00 5,7 C 81 % 1017,7 hPa 0,6 l/m 1,8 km/h (1 Bft) W-SW 251 0 min 0,000 mm 0,0 UV-I 54 W/m 2,7 C 5,7 C 4,0 km/h (1 Bft) 0,00 %
19.11.2014 13:15 5,8 C 82 % 1017,9 hPa 0,6 l/m 0,4 km/h (0 Bft) S 182 0 min 0,000 mm 0,0 UV-I 35 W/m 3,0 C 5,8 C 4,0 km/h (1 Bft) 0,00 %
19.11.2014 13:30 5,8 C 82 % 1018,2 hPa 0,0 l/m 1,4 km/h (1 Bft) W-SW 255 0 min 0,000 mm 0,0 UV-I 20 W/m 3,0 C 5,8 C 4,0 km/h (1 Bft) 0,00 %
19.11.2014 13:45 5,8 C 82 % 1018,3 hPa 0,3 l/m 0,4 km/h (0 Bft) S 178 0 min 0,000 mm 0,0 UV-I 14 W/m 3,0 C 5,8 C 4,0 km/h (1 Bft) 0,00 %
19.11.2014 14:00 5,8 C 81 % 1018,5 hPa 0,0 l/m 3,2 km/h (1 Bft) W 278 0 min 0,000 mm 0,0 UV-I 0 W/m 2,8 C 5,8 C 4,0 km/h (1 Bft) 0,00 %
19.11.2014 14:15 5,8 C 81 % 1018,6 hPa 0,3 l/m 0,4 km/h (0 Bft) N-NW 340 0 min 0,000 mm 0,0 UV-I 0 W/m 2,8 C 5,8 C 4,0 km/h (1 Bft) 0,00 %
19.11.2014 14:30 5,8 C 81 % 1018,9 hPa 0,0 l/m 0,0 km/h (0 Bft) N-NO 29 0 min 0,000 mm 0,0 UV-I 0 W/m 2,8 C 5,8 C 0,0 km/h (0 Bft) 0,00 %
19.11.2014 14:45 5,9 C 81 % 1019,2 hPa 0,0 l/m 0,4 km/h (0 Bft) W-SW 255 0 min 0,000 mm 0,0 UV-I 0 W/m 2,9 C 5,9 C 4,0 km/h (1 Bft) 0,00 %
19.11.2014 15:00 5,9 C 81 % 1019,3 hPa 0,0 l/m 0,0 km/h (0 Bft) S-SW 213 0 min 0,000 mm 0,0 UV-I 0 W/m 2,9 C 5,9 C 0,0 km/h (0 Bft) 0,00 %
19.11.2014 15:15 5,8 C 81 % 1019,3 hPa 0,0 l/m 0,7 km/h (0 Bft) W-SW 256 0 min 0,000 mm 0,0 UV-I 0 W/m 2,8 C 5,8 C 4,0 km/h (1 Bft) 0,00 %
19.11.2014 15:30 5,9 C 81 % 1019,7 hPa 0,0 l/m 1,8 km/h (1 Bft) W-SW 255 0 min 0,000 mm 0,0 UV-I 0 W/m 2,9 C 5,9 C 4,0 km/h (1 Bft) 0,00 %
19.11.2014 15:45 5,9 C 81 % 1019,9 hPa 0,0 l/m 1,4 km/h (1 Bft) W-SW 256 0 min 0,000 mm 0,0 UV-I 0 W/m 2,9 C 5,9 C 4,0 km/h (1 Bft) 0,00 %
19.11.2014 16:00 5,9 C 81 % 1020,3 hPa 0,0 l/m 0,7 km/h (0 Bft) W-SW 251 0 min 0,000 mm 0,0 UV-I 0 W/m 2,9 C 5,9 C 4,0 km/h (1 Bft) 0,00 %
19.11.2014 16:15 5,9 C 81 % 1020,3 hPa 0,3 l/m 0,4 km/h (0 Bft) W-SW 256 0 min 0,000 mm 0,0 UV-I 0 W/m 2,9 C 5,9 C 4,0 km/h (1 Bft) 0,00 %
19.11.2014 16:30 5,8 C 81 % 1020,9 hPa 0,0 l/m 1,4 km/h (1 Bft) SW 236 0 min 0,000 mm 0,0 UV-I 0 W/m 2,8 C 5,8 C 4,0 km/h (1 Bft) 0,00 %
19.11.2014 16:45 5,9 C 81 % 1021,1 hPa 0,0 l/m 4,0 km/h (1 Bft) S 188 0 min 0,000 mm 0,0 UV-I 0 W/m 2,9 C 5,9 C 7,9 km/h (2 Bft) 0,00 %
19.11.2014 17:00 5,9 C 80 % 1021,2 hPa 0,0 l/m 4,0 km/h (1 Bft) W 266 0 min 0,000 mm 0,0 UV-I 0 W/m 2,7 C 5,9 C 7,9 km/h (2 Bft) 0,00 %
19.11.2014 17:15 5,9 C 80 % 1021,4 hPa 0,0 l/m 0,7 km/h (0 Bft) W-SW 256 0 min 0,000 mm 0,0 UV-I 0 W/m 2,7 C 5,9 C 4,0 km/h (1 Bft) 0,00 %
19.11.2014 17:30 5,8 C 80 % 1021,8 hPa 0,0 l/m 4,3 km/h (1 Bft) W-SW 256 0 min 0,000 mm 0,0 UV-I 0 W/m 2,6 C 5,8 C 7,9 km/h (2 Bft) 0,00 %
19.11.2014 17:45 5,8 C 80 % 1021,8 hPa 0,0 l/m 6,5 km/h (2 Bft) W-SW 252 0 min 0,000 mm 0,0 UV-I 0 W/m 2,6 C 5,7 C 7,9 km/h (2 Bft) 0,00 %
19.11.2014 18:00 5,8 C 80 % 1022,2 hPa 0,0 l/m 0,0 km/h (0 Bft) W-SW 257 0 min 0,000 mm 0,0 UV-I 0 W/m 2,6 C 5,8 C 0,0 km/h (0 Bft) 0,00 %
19.11.2014 18:15 5,7 C 80 % 1022,6 hPa 0,0 l/m 0,0 km/h (0 Bft) S-SW 201 0 min 0,000 mm 0,0 UV-I 0 W/m 2,5 C 5,7 C 0,0 km/h (0 Bft) 0,00 %
19.11.2014 18:30 5,6 C 80 % 1022,5 hPa 0,0 l/m 0,4 km/h (0 Bft) SO 130 0 min 0,000 mm 0,0 UV-I 0 W/m 2,4 C 5,6 C 4,0 km/h (1 Bft) 0,00 %
19.11.2014 18:45 5,6 C 80 % 1022,7 hPa 0,0 l/m 0,0 km/h (0 Bft) SW 226 0 min 0,000 mm 0,0 UV-I 0 W/m 2,4 C 5,6 C 0,0 km/h (0 Bft) 0,00 %
19.11.2014 19:00 5,6 C 80 % 1022,8 hPa 0,0 l/m 0,0 km/h (0 Bft) W-SW 242 0 min 0,000 mm 0,0 UV-I 0 W/m 2,4 C 5,6 C 0,0 km/h (0 Bft) 0,00 %
19.11.2014 19:15 5,7 C 80 % 1023,0 hPa 0,0 l/m 0,0 km/h (0 Bft) NO 37 0 min 0,000 mm 0,0 UV-I 0 W/m 2,5 C 5,7 C 0,0 km/h (0 Bft) 0,00 %
19.11.2014 19:30 5,7 C 80 % 1023,2 hPa 0,0 l/m 0,0 km/h (0 Bft) SW 223 0 min 0,000 mm 0,0 UV-I 0 W/m 2,5 C 5,7 C 0,0 km/h (0 Bft) 0,00 %
19.11.2014 19:45 5,7 C 80 % 1023,1 hPa 0,0 l/m 0,7 km/h (0 Bft) W-SW 251 0 min 0,000 mm 0,0 UV-I 0 W/m 2,5 C 5,7 C 4,0 km/h (1 Bft) 0,00 %
19.11.2014 20:00 5,7 C 80 % 1023,3 hPa 0,0 l/m 2,9 km/h (1 Bft) W-SW 254 0 min 0,000 mm 0,0 UV-I 0 W/m 2,5 C 5,7 C 7,9 km/h (2 Bft) 0,00 %
19.11.2014 20:15 5,7 C 79 % 1023,7 hPa 0,0 l/m 0,4 km/h (0 Bft) SW 229 0 min 0,000 mm 0,0 UV-I 0 W/m 2,3 C 5,7 C 4,0 km/h (1 Bft) 0,00 %
19.11.2014 20:30 5,7 C 79 % 1023,6 hPa 0,0 l/m 0,7 km/h (0 Bft) S-SW 204 0 min 0,000 mm 0,0 UV-I 0 W/m 2,3 C 5,7 C 4,0 km/h (1 Bft) 0,00 %
19.11.2014 20:45 5,7 C 79 % 1023,8 hPa 0,0 l/m 0,4 km/h (0 Bft) W-SW 252 0 min 0,000 mm 0,0 UV-I 0 W/m 2,3 C 5,7 C 4,0 km/h (1 Bft) 0,00 %
19.11.2014 21:00 5,7 C 79 % 1023,9 hPa 0,0 l/m 0,7 km/h (0 Bft) W-SW 251 0 min 0,000 mm 0,0 UV-I 0 W/m 2,3 C 5,7 C 4,0 km/h (1 Bft) 0,00 %
19.11.2014 21:15 5,7 C 79 % 1024,2 hPa 0,0 l/m 0,0 km/h (0 Bft) W-SW 254 0 min 0,000 mm 0,0 UV-I 0 W/m 2,3 C 5,7 C 0,0 km/h (0 Bft) 0,00 %
19.11.2014 21:30 5,7 C 79 % 1024,4 hPa 0,0 l/m 0,0 km/h (0 Bft) W-SW 256 0 min 0,000 mm 0,0 UV-I 0 W/m 2,3 C 5,7 C 0,0 km/h (0 Bft) 0,00 %
19.11.2014 21:45 5,7 C 79 % 1024,6 hPa 0,0 l/m 0,4 km/h (0 Bft) W-SW 254 0 min 0,000 mm 0,0 UV-I 0 W/m 2,3 C 5,7 C 4,0 km/h (1 Bft) 0,00 %
19.11.2014 22:00 5,7 C 79 % 1024,6 hPa 0,0 l/m 1,4 km/h (1 Bft) SW 233 0 min 0,000 mm 0,0 UV-I 0 W/m 2,3 C 5,7 C 4,0 km/h (1 Bft) 0,00 %
19.11.2014 22:15 5,7 C 79 % 1024,8 hPa 0,0 l/m 0,0 km/h (0 Bft) SO 125 0 min 0,000 mm 0,0 UV-I 0 W/m 2,3 C 5,7 C 0,0 km/h (0 Bft) 0,00 %
19.11.2014 22:30 5,7 C 79 % 1024,6 hPa 0,0 l/m 0,7 km/h (0 Bft) W-NW 289 0 min 0,000 mm 0,0 UV-I 0 W/m 2,3 C 5,7 C 4,0 km/h (1 Bft) 0,00 %
19.11.2014 22:45 5,7 C 80 % 1024,6 hPa 0,0 l/m 4,0 km/h (1 Bft) W-SW 252 0 min 0,000 mm 0,0 UV-I 0 W/m 2,5 C 5,7 C 7,9 km/h (2 Bft) 0,00 %
19.11.2014 23:00 5,7 C 80 % 1024,8 hPa 0,0 l/m 0,4 km/h (0 Bft) W-SW 254 0 min 0,000 mm 0,0 UV-I 0 W/m 2,5 C 5,7 C 4,0 km/h (1 Bft) 0,00 %
19.11.2014 23:15 5,7 C 80 % 1024,9 hPa 0,0 l/m 0,4 km/h (0 Bft) W-NW 284 0 min 0,000 mm 0,0 UV-I 0 W/m 2,5 C 5,7 C 4,0 km/h (1 Bft) 0,00 %
19.11.2014 23:30 5,6 C 80 % 1025,0 hPa 0,0 l/m 0,0 km/h (0 Bft) W-SW 252 0 min 0,000 mm 0,0 UV-I 0 W/m 2,4 C 5,6 C 0,0 km/h (0 Bft) 0,00 %
19.11.2014 23:45 5,6 C 80 % 1025,2 hPa 0,0 l/m 0,0 km/h (0 Bft) W-SW 240 0 min 0,000 mm 0,0 UV-I 0 W/m 2,4 C 5,6 C 0,0 km/h (0 Bft) 0,00 %
_ Min-Zeit 01:00 06:00 00:00 - 00:00 - - - - - - 01:15 12:00 00:00 00:00
Minimum _ 4,4 C 73 % 1009,6 hPa - 0,0 km/h (0 Bft) - - - - - - 1,4 C 1,7 C 0,0 km/h (0 Bft) 0,00 %
_ Max-Zeit 06:45 01:00 23:45 12:45 12:00 - - 08:30 00:00 08:45 11:45 13:15 06:45 12:00 00:00
Maximum _ 6,4 C 82 % 1025,2 hPa 0,6 l/m 11,9 km/h
SW (2 Bft)
- - 15 min 0,000 mm 1,0 UV-I 196 W/m 3,0 C 6,4 C 15,8 km/h
SW (3 Bft)
0,00 %
Durchschnitt _ 5,7 C 79 % 1017,1 hPa #4,8 l/m 1,3 km/h (1 Bft) W-SW - #15 min. #0,000 mm 1,0 UV-I 91 W/m 2,4 C 5,7 C 3,6 km/h (1 Bft) 0,00 %